Flag for Germany Weather past 2 weeks in Schwerin, Mecklenburg-Western Pomerania, Germany

Now
63 °F

Scattered clouds.


Feels Like: 63 °F
Forecast: 49 / 64 °F
Wind: 9 mph from West

Location: Schwerin

Current Time: Sep 2, 2015 at 1:43:54 PM

Latest Report: Sep 2, 2015 at 1:00 PM


Visibility: 18 mi

Pressure: 29.95 "Hg

Humidity: 60%

Dew point: 49 °F

Location of SchwerinLocation

Historic Weather in Schwerin — Graph

°F

Schwerin temperature yesterday

Maximum temperature yesterday: 73 °F (at 1:00 AM)
Minimum temperature yesterday: 58 °F (at 11:00 PM)
Average temperature yesterday: 66 °F

Past Weeks' High & Low Weather Summary

 TemperatureHumidityPressure
High83 °F (Aug 31, 6:00 PM)100% (Aug 19, 4:00 AM)30.26 "Hg (Aug 19, 4:00 AM)
Low52 °F (Aug 29, 6:00 AM)43% (Aug 29, 4:00 PM)29.70 "Hg (Sep 1, 1:00 AM)
Average64 °F81%29.97 "Hg
* Reported Aug 18 12:00 Noon — Sep 2 12:00 Noon, Schwerin, Weather by CustomWeather, © 2015

Note: Actual official high and low records may vary slightly from our data, if they occured in-between our weather recording intervals... More about our weather records

Advertising

Schwerin weather history for previous 24 hours

 ConditionsComfort  
Time TempWeatherWind HumidityBarometerVisibility
12:00 PM
Wed, Sep 2
62 °FPartly sunny.8 mph66%29.95 "Hg16 mi
11:00 AM59 °FScattered clouds.8 mph71%29.95 "Hg8 mi
10:00 AM58 °FScattered clouds.8 mph79%29.94 "Hg11 mi
9:00 AM55 °FPartly sunny.8 mph86%29.93 "Hg8 mi
8:00 AM53 °FLow clouds.7 mph93%29.93 "Hg12 mi
7:00 AM53 °FLow clouds.6 mph94%29.92 "Hg11 mi
4:00 AM53 °FPassing clouds.6 mph94%29.91 "Hg14 mi
3:00 AM54 °FPassing clouds.6 mph94%29.91 "Hg18 mi
2:00 AM55 °FPassing clouds.6 mph94%29.90 "Hg14 mi
1:00 AM56 °FPassing clouds.6 mph93%29.90 "Hg14 mi
11:00 PM
Tue, Sep 1
58 °FPassing clouds.6 mph87%29.87 "Hg22 mi
10:00 PM59 °FPassing clouds.7 mph85%29.86 "Hg25 mi
9:00 PM60 °FOvercast.7 mph87%29.84 "Hg25 mi
8:00 PM61 °FLight rain. Overcast.8 mph85%29.83 "Hg22 mi
7:00 PM62 °FLight rain. Overcast.6 mph83%29.80 "Hg19 mi
6:00 PM64 °FOvercast.6 mph78%29.80 "Hg40 mi
5:00 PM63 °FDrizzle. Overcast.5 mph84%29.80 "Hg31 mi
4:00 PM64 °FOvercast.6 mph78%29.78 "Hg31 mi
3:00 PM65 °FLight rain. Overcast.7 mph76%29.77 "Hg14 mi
2:00 PM67 °FOvercast.9 mph71%29.76 "Hg28 mi
1:00 PM68 °FOvercast.7 mph74%29.72 "Hg28 mi
Weather by CustomWeather, © 2015

See weather overviewHow to use our weather pages